Location: Zagreb
(45.8000°N, 16.0000°E)
Time: 09:36:12
(UTC+01:00)

ISS - Visible Passes

Search period start: 22 January 2022 00:00
Search period end: 01 February 2022 00:00
Orbit: 413 x 422 km, 51.6° (Epoch: 22 January)

Date Brightness Start Highest point End Pass type
(mag) Time Alt. Az. Time Alt. Az. Time Alt. Az.
22 Jan -3.5 18:15:27 10° WSW 18:18:45 60° NNW 18:19:58 34° NE visible
23 Jan -3.8 17:27:25 10° WSW 17:30:45 87° NNW 17:34:00 11° ENE visible
23 Jan -1.9 19:04:48 10° WNW 19:06:56 27° NW 19:06:56 27° NW visible
24 Jan -2.7 18:16:36 10° W 18:19:43 36° NNW 18:20:56 26° NNE visible
25 Jan -3.1 17:28:25 10° W 17:31:38 45° NNW 17:34:52 10° NE visible
25 Jan -1.8 19:05:57 10° WNW 19:07:51 23° NNW 19:07:51 23° NNW visible
26 Jan -2.4 18:17:48 10° WNW 18:20:47 29° N 18:21:50 24° NNE visible
27 Jan -2.6 17:29:37 10° WNW 17:32:39 31° N 17:35:42 10° NE visible
27 Jan -1.9 19:06:55 10° NW 19:08:45 24° NNW 19:08:45 24° NNW visible
28 Jan -2.6 18:18:53 10° WNW 18:21:52 30° N 18:22:46 25° NE visible
28 Jan -0.3 19:55:41 10° WNW 19:55:43 10° WNW 19:55:43 10° WNW visible
29 Jan -2.5 17:30:47 10° WNW 17:33:44 28° N 17:36:42 10° ENE visible
29 Jan -2.2 19:07:43 10° WNW 19:09:46 31° NW 19:09:46 31° NW visible
30 Jan -3.1 18:19:45 10° NW 18:22:55 39° NNE 18:23:52 31° NE visible
30 Jan -0.4 19:56:31 10° WNW 19:56:49 12° WNW 19:56:49 12° WNW visible
31 Jan -2.8 17:31:45 10° NW 17:34:49 33° N 17:37:53 10° ENE visible
31 Jan -2.9 19:08:29 10° WNW 19:11:01 48° WNW 19:11:01 48° WNW visible
